Weather Roundup
Issued by NWS Chicago, IL

Home | Current Version | Previous Version | Graphics & Text | Print | Product List | Glossary Off
Versions: 1 2 3 4 5 6 7 8 9 10 11 12 13 14 15 16 17 18 19 20 21 22 23 24 25 26 27 28 29 30 31 32 33 34 35 36 37 38 39 40 41 42 43 44 45 46 47 48 49 50

000
NZUS59 KLOT 251508
HRRLOT

CHICAGO AREA WEATHER ROUNDUP
NATIONAL WEATHER SERVICE CHICAGO/ROMEOVILLE IL
900 AM CST SUN FEB 25 2018

NOTE: "FAIR" INDICATES FEW OR NO CLOUDS BELOW 12,000 FEET WITH NO
SIGNIFICANT WEATHER AND/OR OBSTRUCTIONS TO VISIBILITY.

* THESE STATIONS ARE NOT UNDER NWS QUALITY CONTROL. THEY ALSO MAY NOT
  REPORT WEATHER SUCH AS PRECIPITATION OR FOG.

ILZ005-006-012>014-019>023-251600-
NORTHEAST ILLINOIS

CITY           SKY/WX    TMP DP  RH WIND       PRES   REMARKS
OHARE          PTSUNNY   35  25  66 W18G32    29.83R WCI  24
MIDWAY         PTSUNNY   36  28  73 SW23G31   29.86R
AURORA           N/A     34  27  75 SW17G30   29.86R WCI  23
LANSING*       CLOUDY    35  30  82 SW21      29.89R WCI  24
JOLIET*        PTSUNNY   37  28  71 W13G24    29.89R
WAUKEGAN         N/A     35  25  66 W14G26    29.78R WCI  26
DUPAGE AIRPORT PTSUNNY   35  28  75 SW17G28   29.84R WCI  25
WHEELING         N/A     36  25  64 SW16G23   29.84R
KANKAKEE*      CLOUDY    36  29  76 W22G28    29.94R
MORRIS*        PTSUNNY   36  28  75 W22       29.89R
LEWIS AIRPORT* CLOUDY    35  29  80 SW21      29.88R WCI  24
NORTHERLY ISL    N/A     35  24  64 SW23        N/A  WCI  23
$$

WIZ051-052-058>065-066-070>072-251600-
SOUTHEAST WISCONSIN

CITY           SKY/WX    TMP DP  RH WIND       PRES   REMARKS
MILWAUKEE        N/A     33  22  63 W22G38    29.74R WCI  21
KENOSHA*         N/A     34  23  64 W24G39    29.77R WCI  21
RACINE*          N/A     34  24  67 W20G31    29.77R WCI  23
BURLINGTON       N/A     32  22  67 W14G30    29.78R WCI  22
WAUKESHA       MOSUNNY   28  21  74 SW15G24   29.74R WCI  17
WEST BEND        N/A     30  23  74 W22G33    29.68R WCI  17
$$

INZ001>003-010>013-019-020-251600-
NORTHWEST INDIANA

CITY           SKY/WX    TMP DP  RH WIND       PRES   REMARKS
GARY*          PTSUNNY   37  27  65 W21G39    29.87R
MICHIGAN CITY* NOT AVBL
RENSSELAER*    NOT AVBL
VALPARAISO       N/A     38  27  64 SW21G35   29.89R
$$

LMZ740>746-251600-
SOUTHERN LAKE MICHIGAN

STATION/POSITION TIME  SKY/WX   TEMP WIND        PRES    VSBY
                                AIR  DIR/SP/G
                 (UTC)          (F)  (DEG/KT/KT) (MB)    (MI)
HARRISON CRIB    1440            36  240/ 19/ 23   N/A
BURNHAM HARBOR   1500            36  240/  9/ 20   N/A
CALUMET HARBOR   1448            36  230/ 15/ 22 1010.6R
BURNS HARBOR     1440            36  240/ 17/ 25 1012.2R
MICHIGAN CITY    1440            35  220/ 28/ 32   N/A
$$

ABBREVIATIONS USED IN REMARKS
   TC - TEMPERATURE IN CELSIUS
  WCI - WIND CHILL INDEX
   HX - HEAT INDEX
  VSB - VISIBILITY
$$



USA.gov is the U.S. government's official web portal to all federal, state and local government web resources and services.